Time,TemperatureF,DewpointF,PressureIn,WindDirection,WindDirectionDegrees,WindSpeedMPH,WindSpeedGustMPH,Humidity,HourlyPrecipIn,Conditions,Clouds,dailyrainin,SoftwareType,DateUTC
2013-03-05 00:02:00,46.0,-99.9,30.08,West,259,3.0,6.0,-999,-99.99,,,-99.99,,2013-03-05 08:02:00,
2013-03-05 00:11:00,46.0,-99.9,30.07,WSW,252,4.0,4.0,-999,-99.99,,,-99.99,,2013-03-05 08:11:00,
2013-03-05 00:21:00,46.0,-99.9,30.07,WSW,250,4.0,5.0,-999,-99.99,,,-99.99,,2013-03-05 08:21:00,
2013-03-05 00:32:00,47.0,-99.9,30.07,WSW,252,3.0,4.0,-999,-99.99,,,-99.99,,2013-03-05 08:32:00,
2013-03-05 00:42:00,47.0,-99.9,30.08,WSW,257,4.0,5.0,-999,-99.99,,,-99.99,,2013-03-05 08:42:00,
2013-03-05 00:52:00,46.0,-99.9,30.08,WSW,256,3.0,5.0,-999,-99.99,,,-99.99,,2013-03-05 08:52:00,
2013-03-05 01:02:00,46.0,-99.9,30.08,West,260,5.0,6.0,-999,-99.99,,,-99.99,,2013-03-05 09:02:00,
2013-03-05 01:11:00,47.0,-99.9,30.08,WSW,247,3.0,4.0,-999,-99.99,,,-99.99,,2013-03-05 09:11:00,
2013-03-05 01:22:00,47.0,-99.9,30.09,West,263,5.0,7.0,-999,-99.99,,,-99.99,,2013-03-05 09:22:00,
2013-03-05 01:32:00,47.0,-99.9,30.09,West,273,6.0,7.0,-999,-99.99,,,-99.99,,2013-03-05 09:32:00,
2013-03-05 01:43:00,47.0,-99.9,30.09,West,276,3.0,5.0,-999,-99.99,,,-99.99,,2013-03-05 09:43:00,
2013-03-05 01:52:00,47.0,-99.9,30.08,WSW,240,2.0,5.0,-999,-99.99,,,-99.99,,2013-03-05 09:52:00,
2013-03-05 02:02:00,47.0,-99.9,30.09,West,267,5.0,6.0,-999,-99.99,,,-99.99,,2013-03-05 10:02:00,
2013-03-05 02:11:00,47.0,-99.9,30.09,West,271,5.0,6.0,-999,-99.99,,,-99.99,,2013-03-05 10:11:00,
2013-03-05 02:22:00,47.0,-99.9,30.09,WSW,258,3.0,5.0,-999,-99.99,,,-99.99,,2013-03-05 10:22:00,
2013-03-05 02:32:00,47.0,-99.9,30.08,WSW,243,1.0,4.0,-999,-99.99,,,-99.99,,2013-03-05 10:32:00,
2013-03-05 02:42:00,47.0,-99.9,30.08,SW,229,0.0,1.0,-999,-99.99,,,-99.99,,2013-03-05 10:42:00,
2013-03-05 02:52:00,47.0,-99.9,30.07,SSW,202,-999.0,1.0,-999,-99.99,,,-99.99,,2013-03-05 10:52:00,
2013-03-05 03:02:00,47.0,-99.9,30.07,SW,230,2.0,4.0,-999,-99.99,,,-99.99,,2013-03-05 11:02:00,
2013-03-05 03:12:00,46.0,-99.9,30.07,West,266,0.0,2.0,-999,-99.99,,,-99.99,,2013-03-05 11:12:00,
2013-03-05 03:22:00,47.0,-99.9,30.06,SE,137,3.0,6.0,-999,-99.99,,,-99.99,,2013-03-05 11:22:00,
2013-03-05 03:32:00,47.0,-99.9,30.06,West,276,2.0,4.0,-999,-99.99,,,-99.99,,2013-03-05 11:32:00,
2013-03-05 03:42:00,47.0,-99.9,30.06,North,356,2.0,3.0,-999,-99.99,,,-99.99,,2013-03-05 11:42:00,
2013-03-05 03:52:00,47.0,-99.9,30.07,West,276,2.0,6.0,-999,-99.99,,,-99.99,,2013-03-05 11:52:00,
2013-03-05 04:03:00,48.0,-99.9,30.07,WNW,282,2.0,5.0,-999,-99.99,,,-99.99,,2013-03-05 12:03:00,
2013-03-05 04:12:00,48.0,-99.9,30.07,NW,319,2.0,4.0,-999,-99.99,,,-99.99,,2013-03-05 12:12:00,
2013-03-05 04:22:00,48.0,-99.9,30.07,West,272,5.0,8.0,-999,-99.99,,,-99.99,,2013-03-05 12:22:00,
2013-03-05 04:32:00,48.0,-99.9,30.07,WNW,290,3.0,4.0,-999,-99.99,,,-99.99,,2013-03-05 12:32:00,
2013-03-05 04:42:00,48.0,-99.9,30.06,SW,230,1.0,7.0,-999,-99.99,,,-99.99,,2013-03-05 12:42:00,
2013-03-05 04:53:00,48.0,-99.9,30.06,North,359,1.0,4.0,-999,-99.99,,,-99.99,,2013-03-05 12:53:00,
2013-03-05 05:02:00,48.0,-99.9,30.06,ESE,111,2.0,4.0,-999,-99.99,,,-99.99,,2013-03-05 13:02:00,
2013-03-05 05:12:00,48.0,-99.9,30.05,East,97,4.0,6.0,-999,-99.99,,,-99.99,,2013-03-05 13:12:00,
2013-03-05 05:22:00,48.0,-99.9,30.06,SE,146,2.0,6.0,-999,-99.99,,,-99.99,,2013-03-05 13:22:00,
2013-03-05 05:32:00,48.0,-99.9,30.05,SE,142,3.0,8.0,-999,-99.99,,,-99.99,,2013-03-05 13:32:00,
2013-03-05 05:42:00,48.0,-99.9,30.05,ESE,117,3.0,6.0,-999,-99.99,,,-99.99,,2013-03-05 13:42:00,
2013-03-05 05:52:00,48.0,-99.9,30.06,SE,143,5.0,9.0,-999,-99.99,,,-99.99,,2013-03-05 13:52:00,
2013-03-05 06:02:00,48.0,-99.9,30.05,SSE,149,6.0,12.0,-999,-99.99,,,-99.99,,2013-03-05 14:02:00,
2013-03-05 06:11:00,48.0,-99.9,30.06,ESE,107,2.0,5.0,-999,-99.99,,,-99.99,,2013-03-05 14:11:00,
2013-03-05 06:22:00,48.0,-99.9,30.06,SE,133,6.0,10.0,-999,-99.99,,,-99.99,,2013-03-05 14:22:00,
2013-03-05 06:32:00,48.0,-99.9,30.06,SE,132,8.0,11.0,-999,-99.99,,,-99.99,,2013-03-05 14:32:00,
2013-03-05 06:42:00,49.0,-99.9,30.06,SE,134,4.0,7.0,-999,-99.99,,,-99.99,,2013-03-05 14:42:00,
2013-03-05 06:52:00,48.0,-99.9,30.06,WSW,244,2.0,11.0,-999,-99.99,,,-99.99,,2013-03-05 14:52:00,
2013-03-05 07:02:00,48.0,-99.9,30.06,SE,131,5.0,12.0,-999,-99.99,,,-99.99,,2013-03-05 15:02:00,
2013-03-05 07:11:00,48.0,-99.9,30.05,ESE,123,2.0,13.0,-999,-99.99,,,-99.99,,2013-03-05 15:11:00,
2013-03-05 07:22:00,48.0,-99.9,30.06,SE,143,3.0,12.0,-999,-99.99,,,-99.99,,2013-03-05 15:22:00,
2013-03-05 07:32:00,48.0,-99.9,30.06,SE,132,6.0,13.0,-999,-99.99,,,-99.99,,2013-03-05 15:32:00,
2013-03-05 07:42:00,48.0,-99.9,30.05,ESE,105,11.0,14.0,-999,-99.99,,,-99.99,,2013-03-05 15:42:00,
2013-03-05 07:52:00,48.0,-99.9,30.05,ESE,110,9.0,18.0,-999,-99.99,,,-99.99,,2013-03-05 15:52:00,
2013-03-05 08:02:00,48.0,-99.9,30.06,ESE,120,4.0,18.0,-999,-99.99,,,-99.99,,2013-03-05 16:02:00,
2013-03-05 08:11:00,49.0,-99.9,30.06,ESE,115,9.0,15.0,-999,-99.99,,,-99.99,,2013-03-05 16:11:00,
2013-03-05 08:22:00,49.0,-99.9,30.06,ESE,110,8.0,15.0,-999,-99.99,,,-99.99,,2013-03-05 16:22:00,
2013-03-05 08:32:00,49.0,-99.9,30.06,East,87,6.0,12.0,-999,-99.99,,,-99.99,,2013-03-05 16:32:00,
2013-03-05 08:42:00,49.0,-99.9,30.05,ESE,105,9.0,17.0,-999,-99.99,,,-99.99,,2013-03-05 16:42:00,
2013-03-05 08:52:00,49.0,-99.9,30.05,SE,128,8.0,21.0,-999,-99.99,,,-99.99,,2013-03-05 16:52:00,
2013-03-05 09:01:00,49.0,-99.9,30.05,East,95,10.0,18.0,-999,-99.99,,,-99.99,,2013-03-05 17:01:00,
2013-03-05 09:11:00,49.0,-99.9,30.05,East,98,7.0,15.0,-999,-99.99,,,-99.99,,2013-03-05 17:11:00,
2013-03-05 09:22:00,49.0,-99.9,30.05,East,96,7.0,18.0,-999,-99.99,,,-99.99,,2013-03-05 17:22:00,
2013-03-05 09:32:00,49.0,-99.9,30.05,ESE,102,13.0,19.0,-999,-99.99,,,-99.99,,2013-03-05 17:32:00,
2013-03-05 09:42:00,49.0,-99.9,30.05,East,87,9.0,15.0,-999,-99.99,,,-99.99,,2013-03-05 17:42:00,
2013-03-05 09:53:00,49.0,-99.9,30.04,ESE,105,12.0,20.0,-999,-99.99,,,-99.99,,2013-03-05 17:53:00,
2013-03-05 10:02:00,49.0,-99.9,30.05,East,93,7.0,16.0,-999,-99.99,,,-99.99,,2013-03-05 18:02:00,
2013-03-05 10:11:00,49.0,-99.9,30.05,SE,146,11.0,21.0,-999,-99.99,,,-99.99,,2013-03-05 18:11:00,
2013-03-05 10:22:00,49.0,-99.9,30.05,SE,124,6.0,18.0,-999,-99.99,,,-99.99,,2013-03-05 18:22:00,
2013-03-05 10:32:00,50.0,-99.9,30.05,SE,129,9.0,21.0,-999,-99.99,,,-99.99,,2013-03-05 18:32:00,
2013-03-05 10:42:00,50.0,-99.9,30.05,SE,131,9.0,17.0,-999,-99.99,,,-99.99,,2013-03-05 18:42:00,
2013-03-05 10:53:00,50.0,-99.9,30.05,SE,139,10.0,20.0,-999,-99.99,,,-99.99,,2013-03-05 18:53:00,
2013-03-05 11:02:00,50.0,-99.9,30.04,SSE,155,10.0,23.0,-999,-99.99,,,-99.99,,2013-03-05 19:02:00,
2013-03-05 11:11:00,50.0,-99.9,30.04,East,86,6.0,17.0,-999,-99.99,,,-99.99,,2013-03-05 19:11:00,
2013-03-05 11:22:00,50.0,-99.9,30.04,East,96,9.0,17.0,-999,-99.99,,,-99.99,,2013-03-05 19:22:00,
2013-03-05 11:32:00,50.0,-99.9,30.03,East,96,9.0,17.0,-999,-99.99,,,-99.99,,2013-03-05 19:32:00,
2013-03-05 11:42:00,50.0,-99.9,30.03,ESE,102,8.0,20.0,-999,-99.99,,,-99.99,,2013-03-05 19:42:00,
2013-03-05 11:52:00,50.0,-99.9,30.03,East,101,9.0,16.0,-999,-99.99,,,-99.99,,2013-03-05 19:52:00,
2013-03-05 12:02:00,50.0,-99.9,30.03,ESE,111,9.0,18.0,-999,-99.99,,,-99.99,,2013-03-05 20:02:00,
2013-03-05 12:11:00,50.0,-99.9,30.03,ESE,111,11.0,19.0,-999,-99.99,,,-99.99,,2013-03-05 20:11:00,
2013-03-05 12:22:00,50.0,-99.9,30.02,East,99,12.0,17.0,-999,-99.99,,,-99.99,,2013-03-05 20:22:00,
2013-03-05 12:32:00,51.0,-99.9,30.02,East,101,10.0,20.0,-999,-99.99,,,-99.99,,2013-03-05 20:32:00,
2013-03-05 12:42:00,51.0,-99.9,30.01,East,100,13.0,25.0,-999,-99.99,,,-99.99,,2013-03-05 20:42:00,
2013-03-05 12:52:00,51.0,-99.9,30.01,ESE,108,11.0,20.0,-999,-99.99,,,-99.99,,2013-03-05 20:52:00,
2013-03-05 13:02:00,50.0,-99.9,30.00,ESE,109,15.0,23.0,-999,-99.99,,,-99.99,,2013-03-05 21:02:00,
2013-03-05 13:11:00,50.0,-99.9,30.00,ESE,119,17.0,24.0,-999,-99.99,,,-99.99,,2013-03-05 21:11:00,
2013-03-05 13:22:00,50.0,-99.9,30.00,ESE,120,16.0,24.0,-999,-99.99,,,-99.99,,2013-03-05 21:22:00,
2013-03-05 13:32:00,50.0,-99.9,29.98,ESE,112,17.0,25.0,-999,-99.99,,,-99.99,,2013-03-05 21:32:00,
2013-03-05 13:42:00,50.0,-99.9,29.98,ESE,115,19.0,26.0,-999,-99.99,,,-99.99,,2013-03-05 21:42:00,
2013-03-05 13:52:00,50.0,-99.9,29.98,ESE,117,19.0,26.0,-999,-99.99,,,-99.99,,2013-03-05 21:52:00,
2013-03-05 14:01:00,50.0,-99.9,29.97,ESE,117,17.0,26.0,-999,-99.99,,,-99.99,,2013-03-05 22:01:00,
2013-03-05 14:12:00,50.0,-99.9,29.96,ESE,116,20.0,28.0,-999,-99.99,,,-99.99,,2013-03-05 22:12:00,
2013-03-05 14:22:00,50.0,-99.9,29.96,ESE,121,20.0,26.0,-999,-99.99,,,-99.99,,2013-03-05 22:22:00,
2013-03-05 14:32:00,50.0,-99.9,29.96,SE,125,21.0,28.0,-999,-99.99,,,-99.99,,2013-03-05 22:32:00,
2013-03-05 14:42:00,50.0,-99.9,29.96,ESE,123,20.0,30.0,-999,-99.99,,,-99.99,,2013-03-05 22:42:00,
2013-03-05 14:52:00,50.0,-99.9,29.95,ESE,113,19.0,28.0,-999,-99.99,,,-99.99,,2013-03-05 22:52:00,
2013-03-05 15:01:00,51.0,-99.9,29.95,ESE,115,20.0,29.0,-999,-99.99,,,-99.99,,2013-03-05 23:01:00,
2013-03-05 15:11:00,50.0,-99.9,29.95,ESE,118,21.0,30.0,-999,-99.99,,,-99.99,,2013-03-05 23:11:00,
2013-03-05 15:22:00,50.0,-99.9,29.94,ESE,115,20.0,28.0,-999,-99.99,,,-99.99,,2013-03-05 23:22:00,
2013-03-05 15:32:00,50.0,-99.9,29.94,ESE,118,20.0,29.0,-999,-99.99,,,-99.99,,2013-03-05 23:32:00,
2013-03-05 15:42:00,50.0,-99.9,29.94,ESE,114,21.0,28.0,-999,-99.99,,,-99.99,,2013-03-05 23:42:00,
2013-03-05 15:53:00,51.0,-99.9,29.94,ESE,110,20.0,29.0,-999,-99.99,,,-99.99,,2013-03-05 23:53:00,
2013-03-05 16:02:00,51.0,-99.9,29.93,ESE,116,20.0,28.0,-999,-99.99,,,-99.99,,2013-03-06 00:02:00,
2013-03-05 16:11:00,51.0,-99.9,29.92,ESE,112,22.0,29.0,-999,-99.99,,,-99.99,,2013-03-06 00:11:00,
2013-03-05 16:22:00,51.0,-99.9,29.92,ESE,113,20.0,30.0,-999,-99.99,,,-99.99,,2013-03-06 00:22:00,
2013-03-05 16:32:00,51.0,-99.9,29.91,ESE,109,20.0,31.0,-999,-99.99,,,-99.99,,2013-03-06 00:32:00,
2013-03-05 16:42:00,50.0,-99.9,29.90,ESE,118,19.0,31.0,-999,-99.99,,,-99.99,,2013-03-06 00:42:00,
2013-03-05 16:52:00,51.0,-99.9,29.90,ESE,108,19.0,29.0,-999,-99.99,,,-99.99,,2013-03-06 00:52:00,
2013-03-05 17:02:00,51.0,-99.9,29.89,ESE,118,22.0,31.0,-999,-99.99,,,-99.99,,2013-03-06 01:02:00,
2013-03-05 17:11:00,51.0,-99.9,29.88,ESE,115,23.0,32.0,-999,-99.99,,,-99.99,,2013-03-06 01:11:00,
2013-03-05 17:22:00,51.0,-99.9,29.88,ESE,117,23.0,32.0,-999,-99.99,,,-99.99,,2013-03-06 01:22:00,
2013-03-05 17:32:00,51.0,-99.9,29.87,ESE,116,25.0,37.0,-999,-99.99,,,-99.99,,2013-03-06 01:32:00,
2013-03-05 17:42:00,51.0,-99.9,29.86,ESE,115,23.0,38.0,-999,-99.99,,,-99.99,,2013-03-06 01:42:00,
2013-03-05 17:52:00,51.0,-99.9,29.86,ESE,110,24.0,36.0,-999,-99.99,,,-99.99,,2013-03-06 01:52:00,
2013-03-05 18:01:00,51.0,-99.9,29.86,ESE,105,21.0,34.0,-999,-99.99,,,-99.99,,2013-03-06 02:01:00,
2013-03-05 18:11:00,51.0,-99.9,29.86,ESE,106,20.0,35.0,-999,-99.99,,,-99.99,,2013-03-06 02:11:00,
2013-03-05 18:22:00,51.0,-99.9,29.86,ESE,106,22.0,34.0,-999,-99.99,,,-99.99,,2013-03-06 02:22:00,
2013-03-05 18:32:00,51.0,-99.9,29.86,ESE,107,19.0,34.0,-999,-99.99,,,-99.99,,2013-03-06 02:32:00,
2013-03-05 18:42:00,50.0,-99.9,29.85,ESE,103,20.0,35.0,-999,-99.99,,,-99.99,,2013-03-06 02:42:00,
2013-03-05 18:52:00,50.0,-99.9,29.85,ESE,103,20.0,38.0,-999,-99.99,,,-99.99,,2013-03-06 02:52:00,
2013-03-05 19:02:00,50.0,-99.9,29.85,ESE,106,22.0,35.0,-999,-99.99,,,-99.99,,2013-03-06 03:02:00,
2013-03-05 19:11:00,51.0,-99.9,29.84,ESE,108,25.0,36.0,-999,-99.99,,,-99.99,,2013-03-06 03:11:00,
2013-03-05 19:22:00,51.0,-99.9,29.84,ESE,111,25.0,38.0,-999,-99.99,,,-99.99,,2013-03-06 03:22:00,
2013-03-05 19:32:00,50.0,-99.9,29.83,ESE,114,29.0,40.0,-999,-99.99,,,-99.99,,2013-03-06 03:32:00,
2013-03-05 19:42:00,51.0,-99.9,29.82,ESE,120,27.0,40.0,-999,-99.99,,,-99.99,,2013-03-06 03:42:00,
2013-03-05 19:53:00,51.0,-99.9,29.82,ESE,121,29.0,43.0,-999,-99.99,,,-99.99,,2013-03-06 03:53:00,
2013-03-05 20:02:00,51.0,-99.9,29.82,ESE,111,25.0,37.0,-999,-99.99,,,-99.99,,2013-03-06 04:02:00,
2013-03-05 20:11:00,50.0,-99.9,29.82,ESE,115,22.0,39.0,-999,-99.99,,,-99.99,,2013-03-06 04:11:00,
2013-03-05 20:22:00,50.0,-99.9,29.82,ESE,109,26.0,41.0,-999,-99.99,,,-99.99,,2013-03-06 04:22:00,
2013-03-05 20:32:00,50.0,-99.9,29.82,East,99,23.0,39.0,-999,-99.99,,,-99.99,,2013-03-06 04:32:00,
2013-03-05 20:42:00,50.0,-99.9,29.81,ESE,106,27.0,38.0,-999,-99.99,,,-99.99,,2013-03-06 04:42:00,
2013-03-05 20:52:00,50.0,-99.9,29.81,ESE,104,25.0,43.0,-999,-99.99,,,-99.99,,2013-03-06 04:52:00,
2013-03-05 21:02:00,50.0,-99.9,29.80,ESE,112,24.0,38.0,-999,-99.99,,,-99.99,,2013-03-06 05:02:00,
2013-03-05 21:12:00,50.0,-99.9,29.81,ESE,108,26.0,40.0,-999,-99.99,,,-99.99,,2013-03-06 05:12:00,
2013-03-05 21:23:00,50.0,-99.9,29.81,ESE,107,22.0,35.0,-999,-99.99,,,-99.99,,2013-03-06 05:23:00,
2013-03-05 21:33:00,50.0,-99.9,29.80,ESE,110,24.0,37.0,-999,-99.99,,,-99.99,,2013-03-06 05:33:00,
2013-03-05 21:42:00,50.0,-99.9,29.80,ESE,108,26.0,41.0,-999,-99.99,,,-99.99,,2013-03-06 05:42:00,
2013-03-05 21:52:00,50.0,-99.9,29.80,ESE,108,23.0,38.0,-999,-99.99,,,-99.99,,2013-03-06 05:52:00,
2013-03-05 22:02:00,50.0,-99.9,29.79,ESE,107,27.0,40.0,-999,-99.99,,,-99.99,,2013-03-06 06:02:00,
2013-03-05 22:12:00,50.0,-99.9,29.80,ESE,114,16.0,36.0,-999,-99.99,,,-99.99,,2013-03-06 06:12:00,
2013-03-05 22:22:00,50.0,-99.9,29.79,ESE,103,26.0,40.0,-999,-99.99,,,-99.99,,2013-03-06 06:22:00,
2013-03-05 22:32:00,50.0,-99.9,29.79,East,101,18.0,38.0,-999,-99.99,,,-99.99,,2013-03-06 06:32:00,
2013-03-05 22:42:00,50.0,-99.9,29.78,ESE,102,23.0,34.0,-999,-99.99,,,-99.99,,2013-03-06 06:42:00,
2013-03-05 22:52:00,50.0,-99.9,29.79,ESE,119,19.0,35.0,-999,-99.99,,,-99.99,,2013-03-06 06:52:00,
2013-03-05 23:02:00,50.0,-99.9,29.80,SE,133,18.0,47.0,-999,-99.99,,,-99.99,,2013-03-06 07:02:00,
2013-03-05 23:11:00,51.0,-99.9,29.80,SE,124,17.0,34.0,-999,-99.99,,,-99.99,,2013-03-06 07:11:00,
2013-03-05 23:22:00,51.0,-99.9,29.80,ESE,115,16.0,31.0,-999,-99.99,,,-99.99,,2013-03-06 07:22:00,
2013-03-05 23:32:00,51.0,-99.9,29.80,ESE,110,16.0,41.0,-999,-99.99,,,-99.99,,2013-03-06 07:32:00,
2013-03-05 23:42:00,51.0,-99.9,29.79,ESE,115,22.0,45.0,-999,-99.99,,,-99.99,,2013-03-06 07:42:00,
2013-03-05 23:52:00,51.0,-99.9,29.80,ESE,114,17.0,34.0,-999,-99.99,,,-99.99,,2013-03-06 07:52:00,